Date String (YYYY-MM-DD hh:mm:ss) UTC,Instrument flags,Ambient pressure (hPa),Sample flow (lpm),Bypass flow (lpm),Sample temperature (°C),Ambient temperature (°C),ASC tube jacket temperature (°C),LED temperature (°C),Box temperature (°C),Sample RH (%),Span deviation,Mass concentration (μg/m³),Mass concentration (μg/m³),Mass concentration (μg/m³)
DateTimeUTC,F1_M11,P_M11,Q1_M11,Q2_M11,T1_M11,T2_M11,T3_M11,T4_M11,T5_M11,U1_M11,ZSPAN_M11,X0_M11,X2_M11,X1_M11
2022-04-24 09:00:00,,0823.1,5.01,0.00,22.4,21.5,00.0,31.5,24.1,15.9,0000.0,0003.83,0001.11,0000.61
2022-04-24 09:01:00,,0823.1,5.01,0.00,22.4,21.5,00.0,31.5,24.1,15.9,0000.0,0004.06,0001.11,0000.61
2022-04-24 09:02:00,,0823.1,5.00,0.00,22.4,21.5,00.0,31.5,24.0,15.9,0000.0,0004.57,0001.15,0000.63
2022-04-24 09:03:00,,0823.1,5.00,0.00,22.3,21.5,00.0,31.5,24.1,15.9,0000.0,0004.57,0001.17,0000.63
2022-04-24 09:04:00,,0823.2,5.01,0.00,22.3,21.5,00.0,31.4,24.0,15.9,0000.0,0004.54,0001.16,0000.63
2022-04-24 09:05:00,,0823.2,4.99,0.00,22.3,21.4,00.0,31.4,24.0,16.0,0000.0,0004.61,0001.17,0000.64
2022-04-24 09:06:00,,0823.2,5.01,0.00,22.3,21.4,00.0,31.4,24.0,16.0,0000.0,0004.78,0001.16,0000.63
2022-04-24 09:07:00,,0823.3,5.00,0.00,22.3,21.4,00.0,31.4,23.9,16.0,0000.0,0005.33,0001.19,0000.63
2022-04-24 09:08:00,,0823.2,4.99,0.00,22.2,21.4,00.0,31.4,23.9,16.0,0000.0,0005.31,0001.18,0000.63
2022-04-24 09:09:00,,0823.2,5.00,0.00,22.2,21.3,00.0,31.3,23.9,16.0,0000.0,0005.25,0001.14,0000.63
2022-04-24 09:10:00,,0823.3,5.01,0.00,22.2,21.3,00.0,31.3,23.9,16.1,0000.0,0005.47,0001.11,0000.64
2022-04-24 09:11:00,,0823.2,5.00,0.00,22.2,21.3,00.0,31.3,23.9,16.1,0000.0,0006.55,0001.13,0000.64
2022-04-24 09:12:00,,0823.3,5.00,0.00,22.1,21.3,00.0,31.3,23.8,16.1,0000.0,0006.46,0001.16,0000.64
2022-04-24 09:13:00,,0823.3,5.00,0.00,22.1,21.3,00.0,31.3,23.8,16.2,0000.0,0006.18,0001.16,0000.64
2022-04-24 09:14:00,,0823.3,5.00,0.00,22.1,21.2,00.0,31.2,23.8,16.2,0000.0,0006.38,0001.16,0000.64
2022-04-24 09:15:00,,0823.3,5.00,0.00,22.0,21.2,00.0,31.2,23.7,16.3,0000.0,0006.36,0001.13,0000.64
2022-04-24 09:16:00,,0823.3,4.99,0.00,22.0,21.2,00.0,31.2,23.7,16.3,0000.0,0006.29,0001.12,0000.64
2022-04-24 09:17:00,,0823.3,5.00,0.00,22.0,21.1,00.0,31.2,23.7,16.3,0000.0,0006.01,0001.13,0000.64
2022-04-24 09:18:00,,0823.3,5.00,0.00,21.9,21.0,00.0,31.1,23.6,16.4,0000.0,0005.46,0001.07,0000.64
2022-04-24 09:19:00,,0823.3,5.00,0.00,21.9,20.9,00.0,31.1,23.5,16.4,0000.0,0005.46,0001.05,0000.64
2022-04-24 09:20:00,,0823.4,5.01,0.00,21.9,20.9,00.0,31.1,23.5,16.5,0000.0,0005.95,0001.06,0000.64
2022-04-24 09:21:00,,0823.3,5.01,0.00,21.8,20.9,00.0,31.1,23.5,16.5,0000.0,0005.68,0001.06,0000.63
2022-04-24 09:22:00,,0823.4,5.00,0.00,21.8,20.9,00.0,31.0,23.5,16.5,0000.0,0004.34,0001.02,0000.63
2022-04-24 09:23:00,,0823.3,5.00,0.00,21.8,20.9,00.0,31.0,23.4,16.6,0000.0,0003.66,0000.97,0000.63
2022-04-24 09:24:00,,0823.3,4.99,0.00,21.8,20.8,00.0,31.0,23.4,16.6,0000.0,0003.94,0000.98,0000.62
2022-04-24 09:25:00,,0823.3,5.00,0.00,21.7,20.8,00.0,31.0,23.4,16.7,0000.0,0003.84,0001.01,0000.62
2022-04-24 09:26:00,,0823.3,5.00,0.00,21.7,20.8,00.0,30.9,23.4,16.7,0000.0,0003.92,0001.05,0000.63
2022-04-24 09:27:00,,0823.4,5.00,0.00,21.7,20.7,00.0,30.9,23.3,16.7,0000.0,0003.95,0001.06,0000.64
2022-04-24 09:28:00,,0823.3,5.00,0.00,21.7,20.7,00.0,30.9,23.3,16.8,0000.0,0004.11,0001.09,0000.67
2022-04-24 09:29:00,,0823.4,5.00,0.00,21.6,20.7,00.0,30.8,23.3,16.8,0000.0,0004.98,0001.17,0000.72
2022-04-24 09:30:00,,0823.3,5.00,0.00,21.6,20.7,00.0,30.8,23.3,16.8,0000.0,0004.99,0001.24,0000.75
2022-04-24 09:31:00,,0823.4,5.00,0.00,21.6,20.7,00.0,30.8,23.2,16.8,0000.0,0004.74,0001.25,0000.78
2022-04-24 09:32:00,,0823.4,5.00,0.00,21.6,20.7,00.0,30.8,23.3,16.8,0000.0,0005.16,0001.28,0000.80
2022-04-24 09:33:00,,0823.3,5.00,0.00,21.6,20.7,00.0,30.8,23.3,16.8,0000.0,0005.16,0001.28,0000.81
2022-04-24 09:34:00,,0823.3,4.99,0.00,21.6,20.7,00.0,30.7,23.2,16.8,0000.0,0005.20,0001.32,0000.82
2022-04-24 09:35:00,,0823.4,5.00,0.00,21.5,20.7,00.0,30.7,23.2,16.9,0000.0,0004.52,0001.35,0000.87
2022-04-24 09:36:00,,0823.3,5.00,0.00,21.5,20.7,00.0,30.7,23.2,16.9,0000.0,0004.61,0001.36,0000.90
2022-04-24 09:37:00,,0823.3,5.00,0.00,21.5,20.6,00.0,30.7,23.1,16.9,0000.0,0006.10,0001.36,0000.90
2022-04-24 09:38:00,,0823.3,4.99,0.00,21.4,20.6,00.0,30.6,23.0,17.0,0000.0,0006.54,0001.43,0000.91
2022-04-24 09:39:00,,0823.3,5.00,0.00,21.4,20.5,00.0,30.6,23.0,17.0,0000.0,0007.62,0001.42,0000.90
2022-04-24 09:40:00,,0823.2,5.00,0.00,21.4,20.5,00.0,30.6,23.0,17.0,0000.0,0007.51,0001.38,0000.87
2022-04-24 09:41:00,,0823.2,5.00,0.00,21.3,20.5,00.0,30.6,23.0,17.0,0000.0,0007.90,0001.34,0000.83
2022-04-24 09:42:00,,0823.2,5.00,0.00,21.3,20.4,00.0,30.5,22.9,17.0,0000.0,0007.87,0001.31,0000.80
2022-04-24 09:43:00,,0823.2,5.00,0.00,21.3,20.4,00.0,30.5,22.9,17.0,0000.0,0007.50,0001.33,0000.79
2022-04-24 09:44:00,,0823.3,5.00,0.00,21.3,20.4,00.0,30.5,22.9,17.1,0000.0,0007.52,0001.34,0000.78
2022-04-24 09:45:00,,0823.3,5.00,0.00,21.2,20.3,00.0,30.5,22.9,17.1,0000.0,0007.41,0001.31,0000.76
2022-04-24 09:46:00,,0823.3,5.00,0.00,21.2,20.3,00.0,30.4,22.8,17.2,0000.0,0007.38,0001.28,0000.72
2022-04-24 09:47:00,,0823.3,5.00,0.00,21.2,20.6,00.0,30.4,22.9,17.1,0000.0,0007.26,0001.24,0000.69
2022-04-24 09:48:00,,0823.4,5.01,0.00,21.3,21.4,00.0,30.4,23.2,17.0,0000.0,0006.02,0001.26,0000.68
2022-04-24 09:49:00,,0823.4,5.01,0.00,21.5,22.3,00.0,30.5,23.5,16.8,0000.0,0006.25,0001.19,0000.67
2022-04-24 09:50:00,,0823.4,4.99,0.00,21.6,22.5,00.0,30.5,23.6,16.7,0000.0,0005.87,0001.14,0000.65
2022-04-24 09:51:00,,0823.4,4.99,0.00,21.7,22.2,00.0,30.5,23.6,16.6,0000.0,0005.43,0001.14,0000.63
2022-04-24 09:52:00,,0823.3,5.01,0.00,21.6,21.9,00.0,30.5,23.5,16.7,0000.0,0005.23,0001.12,0000.62
2022-04-24 09:53:00,,0823.3,5.00,0.00,21.6,21.7,00.0,30.6,23.4,16.7,0000.0,0005.33,0001.15,0000.63
2022-04-24 09:54:00,,0823.3,5.00,0.00,21.6,21.5,00.0,30.6,23.3,16.7,0000.0,0005.59,0001.17,0000.64
2022-04-24 09:55:00,,0823.3,5.01,0.00,21.5,21.3,00.0,30.5,23.3,16.7,0000.0,0005.82,0001.19,0000.64
2022-04-24 09:56:00,,0823.3,5.01,0.00,21.5,21.2,00.0,30.5,23.2,16.8,0000.0,0006.40,0001.21,0000.65
2022-04-24 09:57:00,,0823.3,4.98,0.00,21.5,21.1,00.0,30.5,23.2,16.8,0000.0,0006.63,0001.20,0000.65
2022-04-24 09:58:00,,0823.3,5.00,0.00,21.4,21.0,00.0,30.5,23.1,16.8,0000.0,0006.65,0001.21,0000.65
2022-04-24 09:59:00,,0823.4,5.00,0.00,21.4,20.9,00.0,30.5,23.1,16.8,0000.0,0006.46,0001.20,0000.66
